User: anonymous   Login
Location: Unspecified
(0.0000°N, 0.0000°E)
Time: 21:29:34
(UTC+00:00)
Language:

TBA - TO BE ASSIGNED - Orbit

View from above orbital plane
View from above orbital plane
View from above satellite
View from above satellite

Ground track
Ground track

The orbit is defined by the following mean orbital elements,

1 68054U          26145.45714696 +.00000000 +00000-0 +64226-3 0 00009
2 68054  53.1596  51.7640 0001328  97.8052 262.3101 15.34416852    06
Epoch (UTC): 25 May 2026 10:58:17
Eccentricity: 0.0001328
inclination: 53.1596°
perigee height: 462 km
apogee height: 464 km
right ascension of ascending node: 51.7640°
argument of perigee: 97.8052°
revolutions per day: 15.34416852
mean anomaly at epoch: 262.3101°

The dashed part of the orbit path shows where the satellite is in the earth's shadow,  

DLR